• In Slovakia
  • List of Countries
  • For 7 days
  • Water Temperature
  • Satellite Maps
  • Weather Map
  • Weather Widgets
  • user-avatar
    Login

    Hourly Weather Kalgoorlie

    Today, 25 September, Tuesday

    Time Temperature Precipitation Wind Pressure Humidity
    00:00 +23°C° 0 mm 5 mps 731 mmHg 37%
    01:00 +22°C° 0 mm 4 mps 731 mmHg 41%
    02:00 +21°C° 0 mm 4 mps 731 mmHg 44%
    03:00 +20°C° 0 mm 4 mps 731 mmHg 47%
    04:00 +19°C° 0 mm 3 mps 731 mmHg 50%
    05:00 +19°C° 0 mm 3 mps 731 mmHg 52%
    06:00 +20°C° 0 mm 3 mps 731 mmHg 50%
    07:00 +21°C° 0 mm 3 mps 731 mmHg 47%
    08:00 +22°C° 0 mm 3 mps 732 mmHg 44%
    09:00 +23°C° 0 mm 4 mps 732 mmHg 39%
    10:00 +26°C° 0 mm 4 mps 732 mmHg 34%
    11:00 +28°C° 0 mm 4 mps 732 mmHg 29%
    12:00 +29°C° 0 mm 5 mps 731 mmHg 26%
    13:00 +29°C° 0 mm 6 mps 731 mmHg 24%
    14:00 +30°C° 0 mm 6 mps 730 mmHg 21%
    15:00 +30°C° 0 mm 6 mps 730 mmHg 20%
    16:00 +29°C° 0 mm 6 mps 730 mmHg 20%
    17:00 +29°C° 0 mm 6 mps 730 mmHg 19%
    18:00 +27°C° 0 mm 6 mps 731 mmHg 20%
    19:00 +26°C° 0 mm 6 mps 731 mmHg 22%
    20:00 +23°C° 0 mm 5 mps 732 mmHg 23%
    21:00 +22°C° 0 mm 6 mps 732 mmHg 30%
    22:00 +21°C° 0 mm 6 mps 732 mmHg 37%
    23:00 +19°C° 0 mm 6 mps 733 mmHg 43%

    Tomorrow, 26 September, Wednesday

    Time Temperature Precipitation Wind Pressure Humidity
    00:00 +17°C° 0 mm 6 mps 733 mmHg 52%
    01:00 +16°C° 0 mm 6 mps 732 mmHg 60%
    02:00 +15°C° 0 mm 5 mps 732 mmHg 68%
    03:00 +15°C° 0 mm 5 mps 732 mmHg 69%
    04:00 +14°C° 0 mm 4 mps 732 mmHg 70%
    05:00 +14°C° 0 mm 4 mps 733 mmHg 72%
    06:00 +15°C° 0 mm 4 mps 733 mmHg 67%
    07:00 +16°C° 0 mm 5 mps 733 mmHg 62%
    08:00 +17°C° 0 mm 5 mps 733 mmHg 57%
    09:00 +19°C° 0 mm 4 mps 733 mmHg 50%
    10:00 +21°C° 0 mm 4 mps 733 mmHg 43%
    11:00 +23°C° 0 mm 4 mps 732 mmHg 37%
    12:00 +25°C° 0 mm 3 mps 732 mmHg 33%
    13:00 +26°C° 0 mm 2 mps 731 mmHg 29%
    14:00 +27°C° 0 mm 1 mps 730 mmHg 26%
    15:00 +28°C° 0 mm 1 mps 730 mmHg 25%
    16:00 +28°C° 0 mm 1 mps 730 mmHg 24%
    17:00 +28°C° 0 mm 2 mps 730 mmHg 23%
    18:00 +27°C° 0 mm 2 mps 731 mmHg 24%
    19:00 +26°C° 0 mm 3 mps 731 mmHg 26%
    20:00 +24°C° 0 mm 3 mps 732 mmHg 28%
    21:00 +22°C° 0 mm 4 mps 732 mmHg 31%
    22:00 +21°C° 0 mm 5 mps 732 mmHg 35%
    23:00 +20°C° 0 mm 6 mps 732 mmHg 39%

    Day after tomorrow, 27 September, Thursday

    Time Temperature Precipitation Wind Pressure Humidity
    00:00 +17°C° 0 mm 7 mps 732 mmHg 49%
    01:00 +16°C° 0 mm 8 mps 732 mmHg 60%
    02:00 +13°C° 0 mm 9 mps 731 mmHg 70%
    03:00 +13°C° 0 mm 9 mps 732 mmHg 72%
    04:00 +12°C° 0 mm 8 mps 732 mmHg 74%
    05:00 +12°C° 0 mm 7 mps 732 mmHg 75%
    06:00 +12°C° 0 mm 7 mps 733 mmHg 73%
    07:00 +13°C° 0 mm 8 mps 733 mmHg 71%
    08:00 +13°C° 0 mm 8 mps 733 mmHg 69%
    09:00 +16°C° 0 mm 7 mps 733 mmHg 62%
    10:00 +19°C° 0 mm 6 mps 733 mmHg 55%
    11:00 +20°C° 0 mm 6 mps 733 mmHg 48%
    12:00 +21°C° 0 mm 5 mps 733 mmHg 45%
    13:00 +23°C° 0 mm 5 mps 732 mmHg 42%
    14:00 +25°C° 0 mm 4 mps 731 mmHg 39%
    15:00 +25°C° 0 mm 4 mps 731 mmHg 39%
    16:00 +23°C° 0 mm 5 mps 731 mmHg 39%
    17:00 +23°C° 0 mm 5 mps 731 mmHg 39%
    18:00 +22°C° 0 mm 5 mps 732 mmHg 42%
    19:00 +21°C° 0 mm 6 mps 732 mmHg 45%
    20:00 +20°C° 0 mm 7 mps 733 mmHg 49%
    21:00 +18°C° 0 mm 7 mps 733 mmHg 51%
    22:00 +17°C° 0 mm 7 mps 733 mmHg 53%
    23:00 +16°C° 0 mm 8 mps 733 mmHg 56%

    28 September, Friday

    Time Temperature Precipitation Wind Pressure Humidity
    00:00 +15°C° 0 mm 8 mps 733 mmHg 61%
    01:00 +13°C° 0 mm 8 mps 732 mmHg 66%
    02:00 +11°C° 0 mm 8 mps 732 mmHg 71%
    03:00 +11°C° 0 mm 8 mps 732 mmHg 72%
    04:00 +11°C° 0 mm 9 mps 733 mmHg 74%
    05:00 +10°C° 0 mm 9 mps 733 mmHg 75%
    06:00 +11°C° 0.2 mm 9 mps 733 mmHg 74%
    07:00 +11°C° 0.2 mm 9 mps 734 mmHg 73%
    08:00 +11°C° 0.2 mm 9 mps 734 mmHg 73%
    09:00 +12°C° 0.7 mm 8 mps 734 mmHg 72%
    10:00 +12°C° 0.7 mm 8 mps 734 mmHg 72%
    11:00 +12°C° 0.7 mm 8 mps 733 mmHg 71%
    12:00 +13°C° 0.1 mm 8 mps 732 mmHg 68%
    13:00 +15°C° 0.1 mm 9 mps 732 mmHg 65%
    14:00 +16°C° 0.1 mm 9 mps 731 mmHg 61%
    15:00 +16°C° 0 mm 9 mps 731 mmHg 59%
    16:00 +16°C° 0 mm 9 mps 731 mmHg 57%
    17:00 +17°C° 0 mm 9 mps 731 mmHg 55%
    18:00 +16°C° 0 mm 9 mps 732 mmHg 56%
    19:00 +15°C° 0 mm 8 mps 732 mmHg 57%
    20:00 +15°C° 0 mm 7 mps 733 mmHg 58%
    21:00 +15°C° 0 mm 8 mps 732 mmHg 56%
    22:00 +13°C° 0 mm 9 mps 732 mmHg 54%
    23:00 +13°C° 0 mm 9 mps 731 mmHg 51%

    29 September, Saturday

    Time Temperature Precipitation Wind Pressure Humidity
    00:00 +12°C° 0 mm 9 mps 731 mmHg 53%
    01:00 +12°C° 0 mm 10 mps 731 mmHg 55%
    02:00 +11°C° 0 mm 10 mps 730 mmHg 57%
    03:00 +11°C° 0.1 mm 10 mps 730 mmHg 59%
    04:00 +11°C° 0.1 mm 10 mps 730 mmHg 62%
    05:00 +11°C° 0.1 mm 10 mps 731 mmHg 65%
    06:00 +11°C° 0 mm 10 mps 731 mmHg 63%
    07:00 +12°C° 0 mm 11 mps 731 mmHg 61%
    08:00 +13°C° 0 mm 12 mps 731 mmHg 59%
    09:00 +15°C° 0 mm 12 mps 730 mmHg 53%
    10:00 +18°C° 0 mm 12 mps 730 mmHg 47%
    11:00 +21°C° 0 mm 11 mps 729 mmHg 42%
    12:00 +22°C° 0 mm 11 mps 728 mmHg 39%
    13:00 +24°C° 0 mm 10 mps 727 mmHg 35%
    14:00 +27°C° 0 mm 10 mps 727 mmHg 32%
    15:00 +27°C° 0 mm 9 mps 726 mmHg 32%
    16:00 +27°C° 0 mm 9 mps 726 mmHg 32%
    17:00 +27°C° 0 mm 9 mps 726 mmHg 32%
    18:00 +26°C° 0.1 mm 10 mps 726 mmHg 35%
    19:00 +24°C° 0.1 mm 10 mps 726 mmHg 38%
    20:00 +23°C° 0.1 mm 11 mps 726 mmHg 41%
    21:00 +22°C° 0 mm 11 mps 726 mmHg 43%
    22:00 +22°C° 0 mm 11 mps 726 mmHg 45%
    23:00 +21°C° 0 mm 11 mps 725 mmHg 48%

    30 September, Sunday

    Time Temperature Precipitation Wind Pressure Humidity
    00:00 +21°C° 0.1 mm 10 mps 725 mmHg 50%
    01:00 +19°C° 0.1 mm 9 mps 725 mmHg 53%
    02:00 +20°C° 0.1 mm 8 mps 725 mmHg 55%
    03:00 +20°C° 0.2 mm 8 mps 724 mmHg 58%
    04:00 +18°C° 0.2 mm 7 mps 724 mmHg 60%
    05:00 +19°C° 0.2 mm 6 mps 724 mmHg 63%
    06:00 +18°C° 0.3 mm 7 mps 725 mmHg 62%
    07:00 +20°C° 0.3 mm 7 mps 725 mmHg 61%
    08:00 +20°C° 0.3 mm 7 mps 726 mmHg 60%
    09:00 +21°C° 0.5 mm 7 mps 726 mmHg 59%
    10:00 +21°C° 0.5 mm 8 mps 725 mmHg 59%
    11:00 +21°C° 0.5 mm 8 mps 725 mmHg 58%
    12:00 +21°C° 0.5 mm 8 mps 725 mmHg 52%
    13:00 +22°C° 0.5 mm 8 mps 724 mmHg 47%
    14:00 +23°C° 0.5 mm 8 mps 724 mmHg 41%
    15:00 +23°C° 0 mm 7 mps 724 mmHg 40%
    16:00 +22°C° 0 mm 6 mps 724 mmHg 39%
    17:00 +22°C° 0 mm 5 mps 724 mmHg 37%
    18:00 +21°C° 0 mm 5 mps 724 mmHg 41%
    19:00 +21°C° 0 mm 4 mps 725 mmHg 45%
    20:00 +20°C° 0 mm 4 mps 725 mmHg 48%
    21:00 +19°C° 0 mm 4 mps 725 mmHg 52%
    22:00 +18°C° 0 mm 4 mps 725 mmHg 56%
    23:00 +18°C° 0 mm 4 mps 726 mmHg 60%
    Show more